CST,Max TemperatureF,Mean TemperatureF,Min TemperatureF,Max Dew PointF,MeanDew PointF,Min DewpointF,Max Humidity, Mean Humidity, Min Humidity, Max Sea Level PressureIn, Mean Sea Level PressureIn, Min Sea Level PressureIn, Max VisibilityMiles, Mean VisibilityMiles, Min VisibilityMiles, Max Wind SpeedMPH, Mean Wind SpeedMPH, Max Gust SpeedMPH,PrecipitationIn, CloudCover, Events, WindDirDegrees
2012-12-1,35,33,31,36,33,28,100,96,87,30.08,29.85,29.73,10,3,0,7,3,,0.00,8,Fog,163
2012-12-2,37,35,33,35,34,33,99,97,91,29.98,29.91,29.81,4,3,1,9,4,,0.00,8,,210
2012-12-3,49,42,34,48,39,27,100,88,63,29.81,29.63,29.48,10,6,0,23,6,34,0.00,5,Fog,218
2012-12-4,37,25,13,26,12,8,82,63,49,30.41,30.13,29.77,10,10,10,24,13,29,0.00,0,,294
2012-12-5,36,21,7,19,13,4,90,69,49,30.42,30.21,29.84,10,10,10,12,4,20,0.00,2,,167
2012-12-6,42,34,27,32,25,19,75,65,49,29.96,29.80,29.69,10,10,10,17,11,24,0.00,6,,258
2012-12-7,29,24,18,20,17,11,82,71,63,30.08,30.03,29.96,10,10,10,13,6,18,0.00,6,,295
2012-12-8,28,22,17,22,16,10,91,74,64,30.11,30.08,30.04,10,10,7,7,3,,0.00,6,Snow,48
2012-12-9,32,26,19,29,25,16,97,89,79,30.11,30.03,29.94,10,4,1,13,5,18,0.11,8,Snow,53
2012-12-10,18,9,0,16,7,-2,93,82,69,29.94,29.90,29.84,10,8,2,12,6,,0.06,5,Snow,261
2012-12-11,16,8,1,10,5,-2,91,81,72,30.02,29.85,29.77,10,8,2,10,4,,0.00,6,Snow,248
2012-12-12,27,14,1,24,14,-1,91,85,78,30.04,29.94,29.85,10,10,10,10,3,,0.00,5,,118
2012-12-13,27,16,5,24,17,3,98,86,71,30.16,30.04,29.91,10,8,1,8,3,,0.02,4,Snow,333
2012-12-14,29,16,3,27,16,0,98,90,85,30.17,30.09,29.92,10,9,0,13,2,20,0.00,4,Fog,91
2012-12-15,36,33,30,35,33,26,100,93,84,29.91,29.67,29.53,10,5,0,14,8,22,0.18,7,Rain,84
2012-12-16,35,29,23,33,25,19,100,89,82,29.75,29.66,29.53,10,9,0,15,6,20,0.02,8,Rain,300
2012-12-17,26,23,20,19,18,17,89,81,71,29.76,29.73,29.69,10,10,10,13,8,,0.00,8,,273
2012-12-18,26,20,15,20,18,14,96,88,78,29.80,29.73,29.70,10,10,7,4,1,,0.00,7,,213
2012-12-19,32,25,18,26,23,17,94,86,75,30.00,29.92,29.81,10,8,3,13,4,17,0.00,7,Snow,231
2012-12-20,27,20,13,21,17,7,82,76,72,30.01,29.94,29.86,10,10,10,21,8,26,0.00,6,,348
2012-12-21,22,14,5,8,5,0,89,72,54,30.23,30.18,30.02,10,10,10,13,8,20,0.00,0,,288
2012-12-22,26,15,4,14,8,1,89,76,55,30.17,30.05,29.94,10,10,10,14,6,18,0.00,2,Snow,263
2012-12-23,19,12,5,8,6,0,84,71,58,30.17,30.12,30.06,10,10,10,9,5,,0.00,2,,335
2012-12-24,14,8,1,7,0,-5,83,68,56,30.29,30.14,30.05,10,10,2,10,6,,0.00,2,Snow,315
2012-12-25,12,4,-4,0,-5,-8,86,73,58,30.48,30.41,30.30,10,10,7,9,6,,0.00,0,,256
2012-12-26,17,8,-2,6,0,-7,88,79,61,30.41,30.34,30.27,10,10,10,6,2,,0.00,2,,221
2012-12-27,22,11,0,19,8,-4,95,82,66,30.29,30.24,30.18,10,9,3,5,1,,0.00,5,Snow,209
2012-12-28,24,16,7,21,17,5,98,91,77,30.18,30.09,30.01,10,6,1,6,1,,0.00,7,Snow,67
2012-12-29,20,12,3,16,9,1,92,81,66,30.11,30.03,29.99,10,9,3,15,4,18,0.00,6,Snow,254
2012-12-30,23,12,2,11,7,-1,85,74,60,30.14,29.99,29.87,10,10,10,12,6,,0.00,2,Snow,231
2012-12-31,20,10,0,14,-1,-7,79,66,49,30.24,30.14,29.89,10,10,10,18,9,23,0.00,2,Snow,309